Wind_Speed
9 8 5 9 7 14 20 27 14 16 21 28 25 23 13 5 11 17 19 12 13 16 17 17 18 20 20 20 22 23 26 27 28 30 29 28 28 28 29 30 32 30 29 31
8 6 6 8 15 13 18 22 16 20 27 23 24 29 16 9 9 13 17 16 14 16 21 19 20 23 24 23 24 25 25 27 29 31 31 31 31 29 29 30 31 31 29 29
9 5 4 5 5 8 18 21 18 24 22 17 20 22 22 25 22 16 9 16 19 19 18 23 20 23 27 24 23 24 27 27 30 30 32 34 29 29 28 28 29 28 28 30
10 7 7 4 9 14 14 18 18 18 20 20 22 24 17 21 27 16 13 20 33 33 23 22 20 28 27 23 24 27 26 24 29 30 32 31 30 28 29 30 30 30 30 31
13 10 6 7 7 11 15 18 21 20 21 21 22 24 19 21 18 13 14 26 23 32 21 23 27 26 25 22 21 24 25 25 29 30 30 28 28 28 30 31 31 30 32 33
18 12 11 9 7 12 16 20 23 24 26 21 25 25 25 21 17 16 24 28 29 28 25 28 26 38 32 19 21 24 23 28 32 29 29 29 29 30 31 32 33 33 34 34
20 14 16 12 10 13 17 22 25 25 25 30 21 25 27 19 19 28 34 32 31 31 21 27 32 31 23 19 20 16 25 28 24 24 27 27 29 30 31 32 34 33 33 34
24 19 16 15 15 15 17 21 26 26 26 25 18 25 21 19 22 30 32 37 38 36 34 29 34 39 24 25 26 23 17 18 21 23 27 29 28 31 32 35 34 35 33 31
27 25 18 18 14 11 12 18 18 21 21 18 17 19 13 17 22 31 34 39 39 36 33 29 34 32 19 16 21 22 14 21 23 24 27 29 32 34 35 34 33 33 32 30
21 24 17 16 18 11 18 22 27 23 21 21 16 20 21 23 29 35 39 40 40 38 35 29 30 23 17 22 21 24 20 27 26 26 28 31 34 35 34 31 33 35 33 30
19 19 11 14 15 16 20 27 28 26 23 25 28 19 26 24 32 32 35 39 37 34 31 25 26 24 23 19 19 22 24 28 27 29 29 31 33 33 31 31 32 33 33 33
15 16 17 15 15 17 23 28 34 27 28 25 28 26 23 23 29 32 34 36 35 34 31 30 31 24 23 17 19 21 25 29 30 30 30 32 32 32 30 32 33 34 35 34
12 15 17 19 20 23 28 30 28 22 26 27 27 30 23 24 27 32 36 35 34 32 32 32 30 27 23 22 22 23 26 29 29 29 30 30 30 32 32 33 34 36 34 35
15 16 20 22 25 27 30 30 24 25 26 27 28 30 28 25 25 31 35 37 34 33 31 31 28 24 23 24 24 25 29 30 31 29 33 30 28 31 33 35 35 35 36 33
18 25 25 25 26 23 24 24 25 23 23 26 28 30 34 28 30 36 35 32 31 32 35 34 32 30 30 30 30 31 33 32 30 28 35 32 27 28 33 33 37 36 31 33
5 7 12 16 19 20 20 25 26 26 25 26 30 34 36 32 39 36 33 28 28 31 37 36 33 29 32 34 39 39 32 31 26 34 33 28 25 31 32 35 32 33 33 32
7 9 10 12 17 18 18 22 25 27 30 31 32 36 30 39 41 28 24 25 27 32 35 36 30 32 38 40 41 32 27 29 32 31 28 33 30 31 31 31 30 31 31 31
13 15 14 13 16 16 17 20 25 28 34 35 36 36 38 43 41 38 38 19 25 28 31 34 33 35 38 37 35 33 32 31 32 30 30 31 28 27 27 28 28 29 32 35
18 19 20 21 18 17 22 20 20 23 31 34 33 34 41 42 42 43 35 23 20 28 31 33 37 37 37 37 36 35 33 31 26 32 29 26 22 24 26 29 31 33 36 38
20 21 24 25 26 24 23 26 24 26 30 34 34 38 43 49 29 40 30 23 19 25 26 31 37 38 35 33 36 33 30 31 28 26 25 23 25 27 29 30 32 35 37 38
23 25 25 27 29 29 29 27 28 33 33 39 32 39 41 34 31 29 19 18 20 24 26 31 34 32 30 33 32 30 31 28 25 24 24 25 26 28 30 32 35 35 38 41
28 29 28 28 28 30 29 30 32 31 37 36 38 32 43 42 32 21 17 20 22 23 27 28 29 32 31 30 30 31 25 21 23 23 24 26 29 30 30 34 36 39 40 42
32 33 31 30 29 32 32 33 32 34 34 34 28 34 36 33 25 20 24 26 19 23 28 27 28 29 28 27 28 26 21 22 23 23 25 28 29 29 32 35 37 38 40 41
34 35 33 31 32 34 35 33 32 33 35 34 29 31 26 22 20 25 32 25 21 23 26 26 28 27 27 25 24 20 20 22 22 24 27 28 29 30 34 36 38 39 41 41
37 36 36 33 34 36 36 35 35 35 34 34 29 27 27 26 25 23 26 20 24 25 26 25 24 25 26 25 20 19 21 23 23 26 28 29 29 32 35 37 38 40 41 42
38 38 37 37 37 38 37 37 37 37 36 34 34 30 33 37 27 23 21 23 24 26 26 24 25 28 27 22 20 22 23 23 24 27 29 28 30 33 36 38 41 42 42 43
Wind_Direction
122 70 19 14 19 28 4 353 348 349 352 357 3 6 311 312 2 348 347 354 337 321 319 325 327 318 320 326 330 332 333 337 337 336 334 330 330 332 334 334 332 333 333 334
136 50 38 18 13 16 350 350 351 7 1 356 2 360 0 339 318 302 330 330 332 322 312 313 314 314 318 324 328 331 333 334 334 333 331 331 326 331 334 332 332 331 330 331
167 184 274 48 97 11 339 340 348 354 351 345 349 344 343 342 338 305 309 322 318 314 311 308 312 316 322 328 324 324 334 322 328 334 332 335 334 336 334 332 331 329 327 331
192 210 231 30 21 10 342 337 332 345 342 326 331 340 358 4 17 24 3 343 358 356 331 305 313 318 316 321 325 326 335 336 327 331 334 332 337 338 336 335 333 331 331 332
193 216 261 282 351 347 327 325 322 324 332 327 323 330 347 358 353 18 18 18 14 3 351 350 336 337 312 319 317 313 325 329 326 332 336 339 340 341 341 339 336 334 331 329
204 214 243 254 319 308 301 310 313 318 319 327 329 335 334 343 347 347 6 1 13 1 343 341 341 333 319 304 303 313 331 330 328 334 337 339 338 340 341 339 335 333 329 328
217 229 254 262 273 283 292 297 301 307 321 330 328 325 325 331 337 356 3 2 11 358 2 356 334 320 294 300 277 318 338 331 339 340 338 338 339 339 337 337 340 337 334 329
221 227 244 264 286 310 315 292 295 316 334 340 338 326 344 350 344 353 350 1 356 352 353 357 344 336 325 300 292 319 332 347 348 346 342 338 337 337 335 334 335 334 333 329
222 223 235 256 266 305 325 324 326 333 338 341 339 347 3 351 348 357 354 354 347 354 6 360 8 8 7 328 317 308 344 347 341 344 338 332 336 338 335 335 339 337 336 336
213 214 236 264 279 295 320 326 320 316 331 333 337 336 338 352 347 0 354 349 350 358 5 15 1 360 360 341 323 319 324 347 337 339 338 333 333 335 333 336 339 338 336 331
210 233 224 268 289 309 318 317 321 315 312 323 324 329 332 340 345 352 348 347 351 351 360 356 355 347 355 340 334 325 329 333 336 336 334 328 331 331 329 333 337 338 338 332
210 240 251 281 303 313 310 309 310 301 308 317 323 334 320 334 341 343 345 341 347 349 352 355 352 2 354 350 338 334 331 329 332 336 334 332 328 328 328 330 333 335 334 331
257 272 282 286 291 296 297 301 301 301 304 310 320 325 335 335 341 337 333 334 341 342 345 346 351 355 353 347 341 334 328 328 335 339 338 333 330 330 328 329 331 331 332 332
292 287 273 277 284 287 292 304 290 293 299 311 317 318 315 321 330 331 327 327 333 337 341 342 343 344 343 342 334 327 328 332 331 333 336 332 330 330 334 330 332 333 332 339
279 266 270 278 284 289 292 285 288 292 298 305 314 315 316 308 314 320 321 322 327 333 334 334 338 341 341 338 327 324 324 326 328 336 336 330 324 327 336 335 335 335 335 335
264 285 280 270 274 276 280 281 289 302 306 302 312 310 317 304 323 331 317 318 323 327 330 332 331 333 339 335 334 332 318 329 334 337 340 335 337 339 339 336 337 337 335 336
259 258 259 259 266 277 283 288 292 295 301 298 300 298 310 319 322 313 310 310 319 323 330 336 331 333 331 327 330 332 328 336 337 341 337 336 338 341 341 339 340 339 338 334
292 290 294 291 275 276 277 281 291 298 307 317 308 309 311 317 311 297 291 275 309 326 337 341 334 330 327 333 338 334 336 337 337 342 339 339 344 346 351 347 344 338 334 333
288 299 302 302 304 298 288 291 293 309 321 321 316 314 314 315 314 303 310 304 318 335 330 332 326 321 327 334 337 338 337 340 335 337 340 342 347 347 342 341 341 340 336 336
289 293 296 302 306 307 300 312 304 303 318 319 320 319 314 307 327 329 302 298 318 330 323 321 320 322 324 332 334 335 334 335 336 341 349 348 346 345 340 343 342 340 338 334
284 289 294 300 304 303 307 310 308 310 309 311 304 314 327 326 325 304 290 294 315 324 319 321 321 326 334 332 330 335 333 338 341 343 341 343 342 339 342 343 340 339 337 337
285 289 292 296 300 304 305 307 309 312 317 308 318 319 331 324 335 307 308 306 312 318 316 323 320 322 331 329 333 333 336 340 338 340 342 341 340 342 341 342 341 340 341 340
282 288 290 295 298 296 301 306 309 311 312 313 314 308 321 318 312 311 307 292 307 316 315 316 322 322 329 327 330 330 335 337 340 340 341 340 340 339 341 342 342 341 341 344
279 284 289 291 294 294 297 302 306 307 302 312 312 315 315 318 302 277 293 295 305 309 313 317 317 322 325 331 330 328 332 336 340 343 343 340 338 340 343 342 343 342 343 345
280 283 285 290 291 291 295 300 303 311 312 315 312 307 306 320 300 288 294 306 309 313 311 316 320 323 329 331 327 331 336 342 347 343 342 338 339 341 342 343 343 341 342 344
278 281 285 288 288 292 296 300 308 308 309 310 308 308 299 305 305 286 304 299 310 316 317 321 319 323 326 328 334 337 340 340 341 340 340 339 338 338 341 341 342 341 340 342
Height
5953 5952 5952 5950 5947 5947 5946 5946 5944 5942 5938 5934 5931 5928 5928 5926 5925 5924 5921 5916 5913 5909 5903 5897 5892 5891 5888 5884 5880 5876 5873 5869 5865 5860 5855 5850 5844 5839 5833 5827 5822 5818 5813 5807
5953 5952 5950 5949 5948 5947 5946 5947 5944 5942 5937 5934 5931 5928 5927 5924 5922 5919 5918 5916 5913 5908 5903 5894 5890 5887 5886 5882 5878 5874 5869 5866 5861 5856 5852 5846 5840 5835 5830 5824 5819 5814 5809 5803
5951 5952 5950 5947 5942 5945 5946 5944 5943 5939 5936 5934 5932 5931 5926 5924 5916 5914 5915 5916 5911 5906 5901 5894 5888 5884 5880 5878 5873 5869 5865 5861 5856 5851 5846 5841 5835 5830 5826 5821 5815 5808 5804 5799
5950 5950 5949 5946 5945 5945 5944 5943 5942 5939 5937 5935 5932 5930 5927 5922 5917 5916 5914 5912 5906 5901 5896 5894 5888 5881 5876 5873 5869 5863 5859 5855 5852 5847 5842 5837 5831 5826 5821 5817 5811 5806 5800 5794
5951 5948 5948 5946 5945 5944 5945 5943 5942 5939 5936 5934 5931 5928 5926 5922 5919 5916 5914 5911 5904 5899 5894 5892 5885 5879 5873 5870 5863 5859 5855 5851 5848 5844 5839 5833 5828 5823 5817 5812 5807 5801 5796 5790
5948 5947 5947 5945 5944 5944 5943 5941 5940 5937 5935 5932 5928 5925 5922 5920 5918 5915 5913 5907 5900 5897 5892 5887 5882 5877 5869 5866 5859 5855 5852 5848 5844 5840 5836 5829 5823 5818 5812 5808 5802 5797 5791 5785
5946 5947 5946 5945 5943 5942 5941 5939 5938 5936 5932 5928 5924 5921 5918 5915 5913 5913 5907 5903 5897 5896 5889 5884 5878 5870 5860 5860 5848 5849 5847 5843 5840 5835 5831 5826 5820 5815 5809 5804 5799 5793 5787 5781
5945 5946 5945 5943 5943 5942 5939 5938 5936 5932 5929 5925 5921 5917 5916 5914 5912 5908 5904 5896 5893 5890 5883 5879 5871 5862 5852 5853 5845 5839 5842 5840 5835 5831 5827 5823 5817 5811 5806 5800 5793 5788 5782 5777
5940 5943 5942 5941 5941 5941 5938 5936 5935 5932 5929 5925 5922 5919 5915 5912 5908 5904 5898 5896 5892 5885 5879 5874 5865 5854 5853 5850 5846 5841 5837 5834 5832 5826 5823 5818 5812 5807 5802 5796 5789 5783 5778 5773
5939 5940 5941 5939 5938 5938 5936 5935 5932 5931 5927 5924 5922 5918 5915 5911 5904 5901 5897 5892 5886 5879 5874 5870 5865 5861 5854 5850 5846 5845 5840 5837 5832 5824 5819 5814 5808 5802 5799 5793 5786 5780 5774 5768
5936 5938 5941 5937 5936 5935 5934 5932 5929 5927 5926 5923 5919 5919 5913 5909 5903 5899 5895 5889 5884 5879 5873 5870 5867 5862 5854 5850 5848 5845 5839 5833 5827 5821 5815 5809 5803 5799 5794 5789 5782 5776 5770 5764
5934 5935 5936 5935 5933 5932 5931 5930 5927 5925 5923 5920 5917 5915 5909 5907 5902 5897 5893 5888 5884 5879 5874 5869 5864 5858 5855 5850 5846 5841 5833 5829 5825 5817 5810 5804 5798 5794 5790 5784 5778 5772 5766 5759
5932 5932 5932 5932 5932 5930 5928 5926 5924 5921 5919 5917 5914 5912 5906 5904 5899 5895 5891 5887 5881 5878 5873 5867 5860 5856 5852 5848 5843 5838 5834 5828 5820 5812 5807 5800 5795 5791 5786 5780 5774 5768 5761 5754
5931 5930 5930 5929 5928 5926 5924 5923 5920 5918 5916 5913 5911 5908 5905 5901 5897 5894 5888 5884 5879 5873 5869 5865 5861 5857 5851 5846 5842 5836 5830 5822 5815 5808 5802 5796 5791 5787 5781 5775 5769 5763 5757 5750
5928 5925 5925 5924 5923 5922 5920 5917 5916 5914 5913 5910 5909 5904 5901 5896 5893 5889 5883 5879 5875 5870 5865 5860 5855 5852 5847 5843 5838 5832 5824 5816 5810 5802 5797 5791 5786 5781 5775 5769 5763 5757 5752 5746
5924 5923 5921 5921 5919 5918 5917 5914 5911 5910 5908 5906 5903 5899 5895 5892 5887 5883 5878 5876 5872 5866 5861 5857 5852 5848 5843 5838 5832 5825 5818 5812 5804 5798 5792 5787 5781 5775 5769 5764 5759 5754 5748 5743
5920 5918 5917 5917 5915 5915 5915 5912 5909 5907 5903 5901 5898 5894 5893 5886 5882 5878 5875 5871 5868 5862 5857 5851 5846 5843 5838 5832 5826 5818 5812 5805 5799 5793 5789 5783 5776 5771 5766 5761 5756 5752 5746 5740
5915 5914 5915 5916 5915 5913 5911 5908 5906 5902 5898 5896 5891 5889 5886 5881 5875 5868 5864 5862 5862 5857 5852 5846 5842 5838 5833 5826 5819 5813 5806 5801 5796 5790 5784 5778 5772 5767 5763 5759 5755 5750 5744 5737
5912 5911 5910 5910 5911 5911 5906 5904 5902 5899 5896 5890 5885 5884 5881 5876 5872 5865 5861 5858 5854 5850 5847 5841 5838 5836 5829 5821 5815 5808 5803 5798 5792 5786 5780 5776 5771 5766 5762 5757 5752 5746 5740 5732
5908 5907 5907 5906 5905 5904 5902 5901 5898 5895 5892 5887 5882 5877 5874 5868 5861 5856 5851 5851 5847 5844 5841 5837 5833 5830 5824 5817 5811 5804 5800 5795 5789 5783 5777 5773 5768 5764 5759 5754 5748 5742 5735 5728
5905 5904 5903 5901 5899 5898 5897 5894 5891 5889 5888 5882 5878 5874 5868 5860 5855 5852 5846 5844 5842 5838 5837 5833 5828 5825 5818 5812 5806 5800 5795 5790 5784 5780 5775 5771 5766 5762 5756 5751 5745 5739 5732 5724
5899 5898 5898 5897 5895 5893 5890 5888 5886 5884 5880 5875 5871 5865 5857 5853 5846 5846 5844 5840 5836 5835 5833 5828 5824 5821 5814 5808 5801 5796 5791 5787 5783 5778 5773 5768 5763 5758 5753 5748 5740 5733 5727 5720
5892 5892 5892 5892 5889 5886 5883 5881 5880 5877 5872 5867 5863 5859 5852 5847 5844 5844 5841 5838 5832 5830 5827 5823 5819 5815 5809 5804 5798 5794 5789 5784 5779 5775 5770 5765 5760 5756 5751 5743 5737 5730 5723 5715
5885 5883 5884 5884 5882 5879 5877 5875 5873 5869 5865 5860 5856 5851 5848 5845 5841 5838 5836 5831 5828 5825 5822 5818 5814 5809 5804 5798 5794 5791 5786 5782 5777 5772 5767 5762 5757 5752 5746 5739 5733 5726 5719 5711
5878 5878 5876 5876 5874 5870 5869 5867 5865 5860 5855 5852 5848 5845 5842 5839 5836 5834 5831 5824 5822 5819 5816 5811 5806 5802 5797 5793 5791 5787 5783 5777 5772 5769 5764 5759 5754 5748 5743 5736 5729 5722 5714 5706
5870 5870 5869 5867 5865 5862 5861 5858 5856 5851 5847 5844 5842 5838 5835 5832 5829 5826 5822 5819 5817 5813 5809 5805 5802 5797 5793 5789 5785 5781 5778 5774 5770 5766 5761 5756 5751 5745 5739 5732 5725 5717 5709 5701